星链-31946 (STARLINK-31946 )

导读

STARLINK-31946是美国太空探索技术公司星链星座的一员,于2024年6月1日发射入轨。星链项目旨在构建全球卫星互联网星座,为全球偏远地区、海洋空域等提供低延迟高速互联网服务,该卫星进一步扩充了星链星座的在轨规模,提升星座覆盖能力与服务容量。

基本信息
目录编号:
59940
目录名称:
STARLINK-31946
国际标识:
2024-106U
轨道中心:
EARTH
卫星名称:
星链-31946
卫星全名:
星链-31946 (STARLINK-31946 )
卫星状态:
在轨 (已飞行746 天)
发射日期:
2024-06-01 UTC
国别 :
美国 (US)
星等 :
--
轨道信息
数据来源 国际轨道数据 AOE轨道数据
星历时间 2026-06-17T12:15:27+0800
12小时前
查看轨道信息
2026-06-17T02:00:00+0800
22小时前
查看轨道信息
半长轴 6861.161km 6861.135km
偏心率 0.0001463 0.0001696
轨道倾角 43.003° 43.001°
近地点辐角 270.211° 243.427°
升交点赤经 131.052° 133.467°
平近点角 89.857° 283.504°
近地点 482.02km 481.834km
远地点 484.028km 484.162km
周期 94.266分钟 94.266分钟
每日圈数 15.275886 15.275973
详细信息
固有亮度:
5
最大亮度:
1.5
卫星平台:
Starlink v2.0 mini
覆盖范围:
全球
运营商:
太空探索技术公司
运营商所在国:
美国
制造商(研发单位):
太空探索技术公司
制造商所在国:
美国
使用方式:
暂无
卫星简介
星链(Starlink)计划是由太空探索技术公司(SpaceX)提出的一个巨型低轨卫星互联网星座项目,计划在2019年至2024年间在太空搭建由约1.2万颗卫星组成的“星链”网络,其中1584颗将部署在地球上空550千米处的近地轨道,并从2020年开始工作。该卫星仍在工作。
2D轨道图
3D轨道图
轨道高度分析图
轨道倾角分析图
轨道综合分析图
查看轨道综合分析图